| time (UTC) | temp C | wind direction | speed KPH | gust KPH | rain 1hr cm | rain 24hr cm | rain mn cm | humidity % | barometer mb |
| 20260509213016 | 30 | 135 | 3.2 | 12.9 | 0.00 | 0.00 | 0.00 | 45 | 1009.6 |
| 20260509212016 | 30 | 0.0 | 3.2 | 0.00 | 0.00 | 0.00 | 49 | 1009.7 | |
| 20260509211016 | 30 | 135 | 3.2 | 6.4 | 0.00 | 0.00 | 0.00 | 45 | 1009.8 |
| 20260509210056 | 30 | 0.0 | 3.2 | 0.00 | 0.00 | 0.00 | 48 | 1010.0 | |
| 20260509205016 | 30 | 135 | 1.6 | 8.0 | 0.00 | 0.00 | 0.00 | 46 | 1010.2 |
| 20260509204016 | 30 | 0.0 | 3.2 | 0.00 | 0.00 | 0.00 | 44 | 1010.4 | |
| 20260509203016 | 30 | 135 | 3.2 | 6.4 | 0.00 | 0.00 | 0.00 | 44 | 1010.5 |
| 20260509202016 | 30 | 113 | 3.2 | 11.3 | 0.00 | 0.00 | 0.00 | 48 | 1010.6 |
| 20260509201016 | 30 | 90 | 1.6 | 4.8 | 0.00 | 0.00 | 0.00 | 48 | 1010.6 |
| 20260509200016 | 30 | 90 | 1.6 | 6.4 | 0.00 | 0.00 | 0.00 | 47 | 1010.7 |
| 20260509195016 | 30 | 45 | 1.6 | 6.4 | 0.00 | 0.00 | 0.00 | 50 | 1010.9 |
| 20260509194016 | 30 | 113 | 1.6 | 4.8 | 0.00 | 0.00 | 0.00 | 50 | 1011.0 |
| 20260509193015 | 30 | 45 | 1.6 | 4.8 | 0.00 | 0.00 | 0.00 | 51 | 1011.1 |
| 20260509192016 | 30 | 45 | 3.2 | 6.4 | 0.00 | 0.00 | 0.00 | 48 | 1011.2 |
| 20260509191015 | 30 | 68 | 1.6 | 6.4 | 0.00 | 0.00 | 0.00 | 49 | 1011.3 |
| 20260509190015 | 30 | 23 | 1.6 | 6.4 | 0.00 | 0.00 | 0.00 | 49 | 1011.3 |
| 20260509185015 | 30 | 0 | 1.6 | 4.8 | 0.00 | 0.00 | 0.00 | 52 | 1011.5 |
| 20260509184016 | 30 | 0 | 1.6 | 4.8 | 0.00 | 0.00 | 0.00 | 53 | 1011.6 |
| 20260509183016 | 30 | 0 | 1.6 | 4.8 | 0.00 | 0.00 | 0.00 | 52 | 1011.6 |
| 20260509182015 | 30 | 0.0 | 3.2 | 0.00 | 0.00 | 0.00 | 52 | 1011.8 | |
| 20260509181015 | 30 | 0 | 1.6 | 9.7 | 0.00 | 0.00 | 0.00 | 54 | 1011.9 |
| 20260509180015 | 29 | 0 | 3.2 | 6.4 | 0.00 | 0.00 | 0.00 | 53 | 1012.0 |
| 20260509175015 | 29 | 0 | 1.6 | 4.8 | 0.00 | 0.00 | 0.00 | 55 | 1012.1 |
| 20260509174016 | 28 | 0 | 3.2 | 6.4 | 0.00 | 0.00 | 0.00 | 53 | 1012.1 |
| 20260509173016 | 28 | 0 | 3.2 | 8.0 | 0.00 | 0.00 | 0.00 | 52 | 1012.1 |
| 20260509172015 | 28 | 23 | 3.2 | 12.9 | 0.00 | 0.00 | 0.00 | 54 | 1012.1 |
| 20260509171016 | 28 | 338 | 1.6 | 4.8 | 0.00 | 0.00 | 0.00 | 55 | 1012.3 |
| 20260509170015 | 28 | 338 | 3.2 | 8.0 | 0.00 | 0.00 | 0.00 | 56 | 1012.3 |
| 20260509165015 | 27 | 293 | 3.2 | 12.9 | 0.00 | 0.00 | 0.00 | 55 | 1012.4 |
| 20260509164015 | 27 | 23 | 1.6 | 3.2 | 0.00 | 0.00 | 0.00 | 56 | 1012.5 |
| 20260509163015 | 27 | 23 | 3.2 | 11.3 | 0.00 | 0.00 | 0.00 | 58 | 1012.6 |
| 20260509162015 | 26 | 23 | 1.6 | 11.3 | 0.00 | 0.00 | 0.00 | 58 | 1012.7 |
| 20260509161015 | 26 | 23 | 3.2 | 11.3 | 0.00 | 0.00 | 0.00 | 59 | 1012.8 |
| 20260509160015 | 26 | 23 | 3.2 | 12.9 | 0.00 | 0.00 | 0.00 | 60 | 1012.6 |
| 20260509155015 | 26 | 23 | 3.2 | 8.0 | 0.00 | 0.00 | 0.00 | 60 | 1012.4 |
| 20260509154015 | 25 | 23 | 3.2 | 11.3 | 0.00 | 0.00 | 0.00 | 61 | 1012.3 |
| 20260509153015 | 25 | 23 | 3.2 | 11.3 | 0.00 | 0.00 | 0.00 | 65 | 1012.4 |
| 20260509152015 | 25 | 0 | 1.6 | 3.2 | 0.00 | 0.00 | 0.00 | 66 | 1012.3 |
| 20260509151015 | 24 | 293 | 3.2 | 9.7 | 0.00 | 0.00 | 0.00 | 69 | 1012.4 |
| 20260509150015 | 23 | 0 | 6.4 | 12.9 | 0.00 | 0.00 | 0.00 | 69 | 1012.4 |
| 20260509145015 | 23 | 45 | 6.4 | 16.1 | 0.00 | 0.00 | 0.00 | 71 | 1012.4 |
| 20260509144015 | 23 | 0 | 3.2 | 8.0 | 0.00 | 0.00 | 0.00 | 76 | 1012.4 |
| 20260509143015 | 22 | 315 | 3.2 | 12.9 | 0.00 | 0.00 | 0.00 | 75 | 1012.5 |
| 20260509142015 | 22 | 68 | 1.6 | 6.4 | 0.00 | 0.00 | 0.00 | 79 | 1012.6 |
| 20260509141015 | 22 | 68 | 1.6 | 6.4 | 0.00 | 0.00 | 0.00 | 80 | 1012.7 |
| 20260509140015 | 21 | 0.0 | 1.6 | 0.00 | 0.00 | 0.00 | 81 | 1012.7 | |
| 20260509135015 | 21 | 23 | 1.6 | 6.4 | 0.00 | 0.00 | 0.00 | 81 | 1012.8 |
| 20260509134035 | 21 | 0.0 | 8.0 | 0.00 | 0.00 | 0.00 | 82 | 1012.6 | |
| 20260509133035 | 20 | 68 | 1.6 | 6.4 | 0.00 | 0.00 | 0.00 | 83 | 1012.7 |
| 20260509132015 | 20 | 0.0 | 0.0 | 0.00 | 0.00 | 0.00 | 83 | 1012.5 | |
| 20260509131015 | 19 | 0.0 | 0.0 | 0.00 | 0.00 | 0.00 | 83 | 1012.5 | |
| 20260509130035 | 19 | 0.0 | 0.0 | 0.00 | 0.00 | 0.00 | 83 | 1012.6 | |
| 20260509125015 | 18 | 0.0 | 0.0 | 0.00 | 0.00 | 0.00 | 83 | 1012.5 | |
| 20260509124015 | 18 | 0.0 | 0.0 | 0.00 | 0.00 | 0.00 | 83 | 1012.4 | |
| 20260509123534 | 18 | 0.0 | 0.0 | 0.00 | 0.00 | 0.00 | 83 | 1012.3 | |
| 20260509093017 | 20 | 0.0 | 0.0 | 0.00 | 0.03 | 0.00 | 72 | 1010.6 | |
| 20260509092016 | 20 | 0.0 | 0.0 | 0.00 | 0.03 | 0.00 | 67 | 1009.6 | |
| 20260509091017 | 20 | 0.0 | 0.0 | 0.00 | 0.03 | 0.00 | 71 | 1009.2 | |
| 20260509090017 | 20 | 0.0 | 0.0 | 0.00 | 0.03 | 0.00 | 73 | 1007.8 | |
| 20260509085016 | 20 | 0.0 | 0.0 | 0.00 | 0.03 | 0.00 | 72 | 1007.9 | |
| 20260509084016 | 20 | 0.0 | 0.0 | 0.00 | 0.03 | 0.00 | 70 | 1008.2 | |
| 20260509083016 | 20 | 0.0 | 0.0 | 0.00 | 0.03 | 0.00 | 71 | 1008.4 | |
| 20260509082017 | 20 | 0.0 | 0.0 | 0.00 | 0.03 | 0.00 | 72 | 1008.6 | |
| 20260509081016 | 20 | 0.0 | 0.0 | 0.00 | 0.03 | 0.00 | 74 | 1008.9 | |
| 20260509080017 | 19 | 0.0 | 0.0 | 0.00 | 0.03 | 0.00 | 71 | 1008.5 | |
| 20260509075017 | 19 | 0.0 | 0.0 | 0.00 | 0.03 | 0.00 | 73 | 1009.1 | |
| 20260509074016 | 19 | 0.0 | 0.0 | 0.00 | 0.03 | 0.00 | 75 | 1009.8 | |
| 20260509073016 | 20 | 0.0 | 0.0 | 0.00 | 0.03 | 0.00 | 76 | 1010.4 | |
| 20260509072017 | 20 | 0.0 | 0.0 | 0.00 | 0.03 | 0.00 | 76 | 1011.2 | |
| 20260509071016 | 20 | 0.0 | 0.0 | 0.00 | 0.03 | 0.00 | 81 | 1011.8 | |
| 20260509070037 | 20 | 0.0 | 0.0 | 0.00 | 0.03 | 0.00 | 87 | 1012.4 | |
| 20260509065016 | 20 | 0.0 | 0.0 | 0.00 | 0.03 | 0.00 | 89 | 1012.9 | |
| 20260509064017 | 20 | 0.0 | 0.0 | 0.00 | 0.03 | 0.00 | 90 | 1013.3 | |
| 20260509063016 | 20 | 0.0 | 0.0 | 0.00 | 0.03 | 0.00 | 90 | 1013.7 | |
| 20260509062016 | 20 | 0.0 | 0.0 | 0.00 | 0.03 | 0.00 | 90 | 1013.4 | |
| 20260509061016 | 20 | 0.0 | 0.0 | 0.00 | 0.03 | 0.00 | 90 | 1013.3 | |
| 20260509060016 | 20 | 0.0 | 0.0 | 0.00 | 0.03 | 0.00 | 90 | 1013.2 | |
| 20260509055016 | 20 | 0.0 | 0.0 | 0.00 | 0.03 | 0.00 | 89 | 1013.4 | |
| 20260509054016 | 20 | 0.0 | 0.0 | 0.00 | 0.03 | 0.00 | 89 | 1012.7 | |
| 20260509053016 | 20 | 0.0 | 0.0 | 0.00 | 0.03 | 0.00 | 89 | 1013.0 | |
| 20260509052036 | 20 | 0.0 | 0.0 | 0.00 | 0.03 | 0.00 | 89 | 1013.1 | |
| 20260509051016 | 20 | 0.0 | 0.0 | 0.00 | 0.03 | 0.00 | 88 | 1013.1 | |
| 20260509050016 | 20 | 0.0 | 0.0 | 0.00 | 0.03 | 0.03 | 88 | 1012.0 | |
| 20260509045015 | 20 | 0.0 | 0.0 | 0.00 | 0.03 | 0.03 | 88 | 1011.9 | |
| 20260509044015 | 20 | 0.0 | 0.0 | 0.00 | 0.03 | 0.03 | 88 | 1011.6 | |
| 20260509043015 | 20 | 0.0 | 0.0 | 0.00 | 0.03 | 0.03 | 87 | 1011.8 | |
| 20260509042015 | 20 | 0.0 | 0.0 | 0.00 | 0.03 | 0.03 | 87 | 1011.7 | |
| 20260509041015 | 20 | 0.0 | 0.0 | 0.00 | 0.03 | 0.03 | 87 | 1011.7 | |
| 20260509040015 | 20 | 0.0 | 0.0 | 0.00 | 0.03 | 0.03 | 86 | 1011.8 | |
| 20260509035015 | 21 | 0.0 | 0.0 | 0.00 | 0.03 | 0.03 | 86 | 1011.8 | |
| 20260509034035 | 21 | 0.0 | 0.0 | 0.00 | 0.03 | 0.03 | 85 | 1011.7 | |
| 20260509033015 | 21 | 0.0 | 0.0 | 0.00 | 0.03 | 0.03 | 85 | 1011.2 | |
| 20260509032015 | 21 | 0.0 | 0.0 | 0.00 | 0.03 | 0.03 | 85 | 1011.0 | |
| 20260509031015 | 21 | 0.0 | 0.0 | 0.00 | 0.03 | 0.03 | 85 | 1010.7 | |
| 20260509030015 | 21 | 0.0 | 0.0 | 0.00 | 0.03 | 0.03 | 84 | 1010.2 | |
| 20260509025015 | 21 | 0.0 | 0.0 | 0.00 | 0.03 | 0.03 | 84 | 1010.2 | |
| 20260509024015 | 21 | 0.0 | 0.0 | 0.00 | 0.03 | 0.03 | 84 | 1009.9 | |
| 20260509023015 | 21 | 0.0 | 0.0 | 0.00 | 0.03 | 0.03 | 83 | 1009.8 | |
| 20260509022015 | 21 | 0.0 | 0.0 | 0.00 | 0.03 | 0.03 | 82 | 1009.7 | |
| 20260509021015 | 21 | 0.0 | 0.0 | 0.00 | 0.03 | 0.03 | 82 | 1009.5 | |
| 20260509020015 | 21 | 0.0 | 0.0 | 0.00 | 0.03 | 0.03 | 82 | 1009.5 | |
| 20260509015015 | 22 | 0.0 | 0.0 | 0.00 | 0.03 | 0.03 | 81 | 1009.6 | |
| 20260509014017 | 22 | 0.0 | 0.0 | 0.00 | 0.03 | 0.03 | 81 | 1009.8 | |
| 20260509013017 | 22 | 0.0 | 0.0 | 0.00 | 0.03 | 0.03 | 80 | 1009.8 | |
| 20260509012037 | 22 | 0.0 | 0.0 | 0.00 | 0.03 | 0.03 | 80 | 1009.9 | |
| 20260509011017 | 22 | 0.0 | 0.0 | 0.00 | 0.03 | 0.03 | 80 | 1009.8 | |
| 20260509010017 | 22 | 158 | 1.6 | 6.4 | 0.00 | 0.03 | 0.03 | 79 | 1009.6 |
| 20260509005037 | 22 | 158 | 1.6 | 6.4 | 0.00 | 0.03 | 0.03 | 78 | 1009.3 |
| 20260509004017 | 22 | 158 | 1.6 | 8.0 | 0.00 | 0.03 | 0.03 | 78 | 1009.4 |
| 20260509003017 | 22 | 158 | 1.6 | 6.4 | 0.00 | 0.03 | 0.03 | 78 | 1009.2 |
| 20260509002015 | 22 | 180 | 3.2 | 9.7 | 0.00 | 0.03 | 0.03 | 77 | 1009.3 |
| 20260509001017 | 22 | 203 | 3.2 | 14.5 | 0.00 | 0.03 | 0.03 | 77 | 1009.4 |
| 20260509000017 | 22 | 135 | 3.2 | 9.7 | 0.00 | 0.03 | 0.03 | 76 | 1009.6 |
| 20260508235017 | 22 | 180 | 1.6 | 3.2 | 0.00 | 0.03 | 0.03 | 77 | 1009.7 |
| 20260508234016 | 23 | 180 | 1.6 | 6.4 | 0.00 | 0.03 | 0.03 | 77 | 1009.7 |
| 20260508233017 | 23 | 180 | 3.2 | 9.7 | 0.00 | 0.03 | 0.03 | 76 | 1009.7 |
| 20260508232037 | 23 | 180 | 3.2 | 9.7 | 0.00 | 0.03 | 0.03 | 76 | 1009.8 |
| 20260508231037 | 23 | 180 | 3.2 | 6.4 | 0.00 | 0.03 | 0.03 | 76 | 1009.7 |
| 20260508230037 | 23 | 180 | 3.2 | 11.3 | 0.00 | 0.03 | 0.03 | 75 | 1009.7 |
| 20260508225017 | 23 | 158 | 1.6 | 9.7 | 0.00 | 0.03 | 0.03 | 75 | 1009.8 |
| 20260508224017 | 23 | 0.0 | 0.0 | 0.00 | 0.03 | 0.03 | 75 | 1009.9 | |
| 20260508223016 | 23 | 225 | 4.8 | 12.9 | 0.00 | 0.03 | 0.03 | 74 | 1010.0 |
| 20260508222016 | 23 | 135 | 6.4 | 12.9 | 0.00 | 0.03 | 0.03 | 72 | 1009.9 |
| 20260508221037 | 23 | 158 | 4.8 | 12.9 | 0.00 | 0.03 | 0.03 | 72 | 1009.8 |
| 20260508220037 | 23 | 135 | 8.0 | 20.9 | 0.00 | 0.03 | 0.03 | 71 | 1009.9 |
| 20260508215016 | 23 | 203 | 4.8 | 12.9 | 0.00 | 0.03 | 0.03 | 71 | 1010.0 |
| 20260508214057 | 23 | 180 | 6.4 | 16.1 | 0.00 | 0.03 | 0.03 | 69 | 1010.1 |